This demonstration page uses our WeatherBlox Daily Observations layout. Learn more.

Left ArrowRight Arrow

41.86663, -103.66717

Hourly Observations for March 1, 2020

Temp ( °F °C ) Dew Point ( °F °C ) Humidity (%) Winds ( mph kmh ) Pressure ( in mb ) Visibility ( mi km ) Precip ( " mm )
12:53 am 00:53 Clear 35 1.7 23 -5 61 61 NW 10 17 29.72 1006 10 16 N/A
1:53 am 01:53 Clear 36 2.2 22 -5.6 57 57 N 8 13 29.72 1006 10 16 N/A
2:53 am 02:53 Clear 36 2.2 28 -2.2 73 73 N 15 24 29.75 1007 10 16 N/A
3:53 am 03:53 Clear 33 0.6 28 -2.2 82 82 NW 13 20 29.78 1008 10 16 N/A
4:53 am 04:53 Clear 29 -1.7 26 -3.3 89 89 W 7 11 29.84 1011 10 16 N/A
5:53 am 05:53 Clear 25 -3.9 24 -4.4 96 96 NW 7 11 29.87 1012 10 16 N/A
6:53 am 06:53 Sunny 27 -2.8 25 -3.9 92 92 NW 6 9 29.88 1012 10 16 N/A
7:53 am 07:53 Sunny 32 undefined 27 -2.8 82 82 NW 6 9 29.92 1013 10 16 N/A
8:53 am 08:53 Sunny 38 3.3 27 -2.8 65 65 WNW 8 13 29.93 1014 10 16 N/A
9:53 am 09:53 Cloudy 42 5.6 20 -6.7 41 41 NW 13 20 29.92 1013 10 16 N/A
10:53 am 10:53 Cloudy 38 3.3 28 -2.2 68 68 NW 18 30 29.98 1015 9 14 0.00 0.00
11:53 am 11:53 Cloudy 40 4.4 27 -2.8 60 60 NNE 8 13 29.98 1015 10 16 0.00 0.00
12:53 pm 12:53 Cloudy 42 5.6 19 -7.2 40 40 N 12 19 29.95 1014 10 16 N/A
1:53 pm 13:53 Cloudy 41 5 19 -7.2 41 41 NNW 14 22 29.95 1014 10 16 N/A
2:53 pm 14:53 Cloudy 39 3.9 21 -6.1 48 48 NNW 17 28 29.97 1015 10 16 N/A
3:14 pm 15:14 Cloudy 37 3 27 -3 65 65 N 15 24 30.02 1017 8 13 N/A
3:22 pm 15:22 Cloudy 37 2.8 26 -3.3 65 65 N 15 24 30.03 1017 10 16 N/A
3:53 pm 15:53 Cloudy 36 2.2 23 -5 59 59 N 16 26 30.01 1016 10 16 N/A
4:22 pm 16:22 Cloudy with Light Snow 34 1.1 27 -2.8 76 76 N 16 26 30.06 1018 2 3 0.00 0.00
4:36 pm 16:36 Cloudy with Light Snow 33 0.6 28 -2.2 82 82 N 14 22 30.08 1019 3 5 0.00 0.00
4:53 pm 16:53 Cloudy 34 1.1 27 -2.8 76 76 NNW 7 11 30.05 1018 8 13 0.00 0.00
5:53 pm 17:53 Cloudy 33 0.6 23 -5 66 66 NNW 10 17 30.08 1019 10 16 N/A
6:53 pm 18:53 Cloudy with Light Snow 31 -0.6 25 -3.9 79 79 NW 8 13 30.09 1019 3 5 0.00 0.00
7:00 pm 19:00 Cloudy with Light Snow 31 -0.6 26 -3.3 82 82 NW 9 15 30.14 1021 2 3 0.00 0.00
7:38 pm 19:38 Cloudy with Light Snow 30 -1.1 28 -2.2 92 92 WNW 9 15 30.15 1021 2 3 0.01 0.25
7:50 pm 19:50 Cloudy with Light Snow 30 -1 28 -2 93 93 WNW 6 9 30.15 1021 4 6 0.01 0.25
7:53 pm 19:53 Cloudy with Light Snow 30 -1.1 28 -2.2 92 92 WNW 5 7 30.09 1019 5 8 0.02 0.51
8:27 pm 20:27 Cloudy with Light Snow 30 -1.1 28 -2.2 92 92 W 7 11 30.15 1021 2 3 0.00 0.00
8:34 pm 20:34 Cloudy with Light Snow 30 -1.1 28 -2.2 92 92 W 6 9 30.15 1021 2 3 0.00 0.00
8:44 pm 20:44 Cloudy with Light Snow 30 -1 28 -2 93 93 WNW 7 11 30.14 1021 2 3 N/A
8:53 pm 20:53 Cloudy with Light Snow 30 -1.1 29 -1.7 96 96 WNW 7 11 30.07 1018 3 4 0.00 0.00
9:02 pm 21:02 Cloudy with Light Snow 30 -1.1 28 -2.2 92 92 NW 8 13 30.14 1021 3 5 0.00 0.00
9:53 pm 21:53 Cloudy 28 -2.2 26 -3.3 92 92 WNW 5 7 30.06 1018 10 16 0.00 0.00
10:24 pm 22:24 Cloudy 27 -3 25 -4 93 93 N 3 6 30.17 1022 10 16 N/A
10:53 pm 22:53 Cloudy 26 -3.3 25 -3.9 96 96 N N/A 30.08 1019 10 16 N/A
11:53 pm 23:53 Cloudy 27 -2.8 26 -3.3 96 96 N N/A 30.05 1018 10 16 N/A

Powered by AerisWeather